[[{"header":{"parameterUnit":"m.s-1","parameterCategory":1,"la1":30.2992,"la2":30.254,"lo1":-89.0895,"lo2":-89.0443,"dy":0.0025,"dx":0.0025,"nx":19,"ny":19,"refTime":"2026-04-25T03:00:00:Z","depth":0,"parameterNumber":2,"parameterNumberName":"U-component_of_WINDS"},"data":[0,0,0,0.9134,0.9129,0.8878,0.8877,0.8571,0.8569,0,0,0,0,0,0,0,0,0,0,0,0.9219,0.9218,0.9134,0.9128,0.8878,0.8877,0.8572,0.8569,0,0,0,0,0,0,0,0,0,0,0,0.922,0.9218,0.9216,0.9127,0.8879,0.8877,0.8572,0.8755,0,0,0,0,0,0,0,0,0,0,0.8995,0.9087,0.9219,0.9216,0.9126,0.8879,0.8877,0.8764,0.8744,0.8692,0,0.8652,0,0.8606,0.855,0.8549,0,0,0,0.9118,0.9103,0.9026,0.9216,0.9124,0.8879,0.8988,0.8752,0.873,0.8666,0.8648,0.8636,0.8601,0.8548,0.8546,0.8295,0.8295,0,0,0.9131,0.9179,0.9042,0.9012,0.9056,0.8996,0.898,0.8738,0.872,0.8647,0.8628,0.8596,0.8546,0.8544,0.8296,0.8295,0,0,0,0.9178,0.9189,0.9118,0.9026,0.898,0.8989,0.8971,0.8731,0.8704,0.8625,0.8593,0.8544,0.8541,0.8296,0.8295,0.8312,0,0,0,0.9186,0.9217,0.9124,0.9151,0.8985,0.8853,0.8969,0.8721,0.8692,0.8594,0.8544,0.8538,0.8297,0.8296,0.8313,0.8311,0,0,0,0.9231,0.9222,0.919,0.9154,0.9049,0.8856,0.8814,0.8713,0.8672,0.8548,0.8537,0.8297,0.8296,0.8314,0.8312,0.8262,0,0,0,0.9292,0.9203,0.9192,0.9079,0.9052,0.887,0.8815,0.8675,0.8571,0.8543,0.8297,0.8296,0.8314,0.8313,0.8263,0.8229,0.8219,0,0,0.9206,0.9194,0.9125,0.9107,0.8941,0.8904,0.8737,0.8592,0.8533,0.8377,0.837,0.8313,0.8312,0.8262,0.8146,0.8139,0,0,0,0.9114,0.9065,0.901,0.8917,0.8809,0.8716,0.8593,0.8541,0.8407,0.8465,0.8279,0.8277,0.8245,0.8227,0.822,0.8191,0.8289,0.8289,0.8289,0.9058,0.8995,0.8876,0.8784,0.8694,0.8572,0.8492,0.84,0.8355,0.8313,0.8266,0.8205,0.8185,0.818,0.815,0.8242,0.8242,0.8242,0.8242,0.8927,0.8849,0.8801,0.867,0.8602,0.8489,0.8369,0.8343,0.8227,0.8233,0.8202,0.8215,0.8174,0.8145,0.8243,0.8242,0.8242,0.8242,0.8242,0.8885,0.8837,0.8779,0.8642,0.8542,0.8449,0.8344,0.8283,0.8225,0.8195,0.8141,0.814,0.8133,0.8174,0.8173,0.8173,0.8173,0.8173,0.8173,0.8864,0.8798,0.8719,0.8603,0.8538,0.8444,0.8325,0.8258,0.8168,0.8132,0.8131,0.8094,0.8183,0.8207,0.8169,0.817,0.817,0.817,0.8171,0.8756,0.8773,0.865,0.8586,0.8447,0.8354,0.8282,0.8152,0.8087,0.8037,0.8007,0.8083,0.8064,0.8068,0.8088,0.8021,0.8021,0.8021,0.8021,0.8721,0.8709,0.8573,0.8475,0.8372,0.8296,0.8159,0.8067,0.7972,0.7929,0.793,0.7951,0.7959,0.7935,0.7943,0.796,0.7862,0.7862,0.7862,0.8653,0.8628,0.8524,0.8439,0.8327,0.8232,0.8102,0.799,0.7885,0.7854,0.7894,0.7901,0.7934,0.7948,0.7916,0.7929,0.796,0,0]},{"header":{"parameterUnit":"m.s-1","parameterCategory":1,"la1":30.2992,"la2":30.254,"lo1":-89.0895,"lo2":-89.0443,"dy":0.0025,"dx":0.0025,"nx":19,"ny":19,"refTime":"2026-04-25T03:00:00:Z","depth":0,"parameterNumber":3,"parameterNumberName":"V-component_of_WINDS"},"data":[0,0,0,2.4935,2.4933,2.4822,2.4822,2.4681,2.468,0,0,0,0,0,0,0,0,0,0,0,2.4972,2.4971,2.4935,2.4933,2.4822,2.4822,2.4681,2.468,0,0,0,0,0,0,0,0,0,0,0,2.4972,2.4971,2.497,2.4932,2.4823,2.4822,2.4681,2.4763,0,0,0,0,0,0,0,0,0,0,2.487,2.4909,2.4971,2.497,2.4932,2.4823,2.4822,2.4767,2.4758,2.4732,0,2.4713,0,2.4695,2.467,2.467,0,0,0,2.4928,2.4916,2.4884,2.497,2.4931,2.4823,2.4871,2.4762,2.4752,2.472,2.4711,2.4706,2.4692,2.467,2.4669,2.4542,2.4541,0,0,2.4934,2.4952,2.4891,2.4877,2.4899,2.4875,2.4868,2.4756,2.4746,2.4711,2.4702,2.469,2.4669,2.4668,2.4542,2.4541,0,0,0,2.4955,2.4957,2.4927,2.4883,2.4864,2.4871,2.4863,2.4751,2.474,2.4701,2.4688,2.4668,2.4666,2.4542,2.4542,2.4541,0,0,0,2.4958,2.4969,2.493,2.494,2.4866,2.4807,2.4861,2.4747,2.4734,2.4689,2.4668,2.4665,2.4543,2.4542,2.4542,2.4537,0,0,0,2.4977,2.4971,2.4957,2.4941,2.4895,2.4808,2.479,2.4744,2.4727,2.467,2.4665,2.4543,2.4542,2.4543,2.4538,2.4509,0,0,0,2.5001,2.4955,2.4957,2.49,2.4896,2.481,2.4791,2.4725,2.4676,2.4667,2.4543,2.4542,2.4543,2.4539,2.4511,2.4488,2.4481,0,0,2.4953,2.495,2.4915,2.4914,2.4834,2.4826,2.4743,2.4679,2.4654,2.458,2.4576,2.4542,2.4538,2.451,2.4436,2.4431,0,0,0,2.4906,2.4881,2.4856,2.4813,2.4766,2.4725,2.4672,2.4649,2.4585,2.4621,2.4524,2.4521,2.4503,2.4491,2.4487,2.447,2.4538,2.4538,2.4538,2.486,2.4836,2.4777,2.474,2.4698,2.4647,2.461,2.4569,2.4552,2.453,2.4507,2.4466,2.4454,2.445,2.4433,2.4494,2.4494,2.4494,2.4494,2.4786,2.4747,2.4732,2.467,2.4643,2.4589,2.4537,2.4528,2.4472,2.4481,2.4464,2.4475,2.4445,2.4429,2.4494,2.4494,2.4494,2.4494,2.4494,2.4753,2.473,2.4706,2.4643,2.4597,2.4559,2.4508,2.4484,2.4461,2.4445,2.4418,2.4418,2.4415,2.4435,2.4434,2.4434,2.4434,2.4434,2.4434,2.4727,2.47,2.4662,2.4611,2.4582,2.454,2.4489,2.4458,2.4417,2.4404,2.4403,2.439,2.4448,2.4462,2.4432,2.4432,2.4432,2.4433,2.4433,2.4659,2.4672,2.4613,2.4584,2.4523,2.4478,2.4451,2.439,2.4361,2.4336,2.4327,2.4374,2.4368,2.4371,2.4383,2.4333,2.4333,2.4333,2.4333,2.4631,2.4627,2.4563,2.4518,2.4471,2.4442,2.4372,2.4333,2.4293,2.4273,2.4277,2.4291,2.4296,2.4286,2.4292,2.4302,2.4233,2.4233,2.4233,2.4587,2.4579,2.4526,2.4492,2.4443,2.4401,2.4335,2.4282,2.4239,2.4229,2.4257,2.4261,2.4283,2.4292,2.4281,2.429,2.4309,0,0]}]]